Tracking 31027 objects as of 19-Jul-2025
HD Live streaming from Space Station
objects crossing your sky now

JUPITER 3 (ECHOSTAR 24)

Track JUPITER 3 (ECHOSTAR 24) now!
JUPITER 3 (ECHOSTAR 24) is classified as:


NORAD ID: 57479
Int'l Code: 2023-108A
Perigee: 35,787.3 km
Apogee: 35,800.4 km
Inclination: 0.0 °
Period: 1,436.1 minutes
Semi major axis: 42164 km
RCS: Unknown
Launch date: July 29, 2023
Source: United States (US)
Launch site: AIR FORCE EASTERN TEST RANGE (AFETR)
Your satellite tracking list
FLOCK 4V 13
Track 1 satellite(s)




NASA's NSSDC Master Catalog

Two Line Element Set (TLE):
1 57479U 23108A   25199.44089563 -.00000144  00000-0  00000+0 0  9990
2 57479   0.0138  53.6057 0001550  66.4792 239.9257  1.00271530  7303
Source of the keplerian elements: AFSPC